STARLINK-1145 (45066 NORAD) Tracking and Keplerian Element Data

This shows tracking and keplerian element data for the satellite.

Feedback or suggestion? Click here.




ElementValue
Catalog45066
NameSTARLINK-1145
Epoch Orbit1047
Epoch Day93.91667824
Epoch Year2020
RAAN277.3095
Inclination53.0001
Eccentricity0.0001815
Argument of Perigee162.1754
Mean Anonmoly348.3543
Mean Motion15.4977513
Decay Rate0.01939401
L11 45066U 20006Y 20093.91667824 .01939401 00000-0 30697-1 0 9999
L22 45066 53.0001 277.3095 0001815 162.1754 348.3543 15.49775130 10470

Live tracking and technical data element details for STARLINK-1145 (NORAD 45066). STARLINK-1145 can be tracked NOW for your location showing map with azimuth and elevation plus other details from your city location.

Track the satellite on the map from your city or location and see movement details for azimuth, elevation, latitude, longitude, range, height, and movement on the map or in text.







IsCatalogInMostPopularTable: catalog: 45066, numindb: 11
Update: records affected: 1



GetName: 45066 STARLINK-1145

Hit Count: updated at: Sun, 05 Apr 2020 20:38:05 GMT